[[{"header":{"parameterUnit":"m.s-1","parameterCategory":1,"la1":30.2991,"la2":30.254,"lo1":-89.0895,"lo2":-89.0444,"dy":0.0017,"dx":0.0017,"nx":28,"ny":28,"refTime":"2023-11-14T03:00:00:Z","depth":0,"parameterNumber":2,"parameterNumberName":"U-component_of_WINDS"},"data":[0,0,0,0,0,0,0,0,0,0,0,0,0,0,0,0,0,0,0,0,0,0,0,0,0,0,0,0,0,0,0,0,0,0,0,0,0,0,0,0,0,0,0,0,0,0,0,0,0,0,0,0,0,0,0,0,0,0,-4.1849,-4.185,0,-4.1944,-4.1946,-4.1947,-4.1858,-4.1855,-4.1851,-4.1848,-4.1947,-4.1953,-4.1959,0,0,0,0,0,0,0,0,0,0,0,0,0,-4.1593,-4.1598,-4.1849,-4.185,-4.1851,-4.1944,-4.1946,-4.1947,-4.1859,-4.1854,-4.185,-4.1846,-4.1945,-4.1952,-4.1959,0,0,0,0,0,0,0,0,0,0,0,0,0,-4.1698,-4.16,-4.1849,-4.1819,-4.1817,-4.1944,-4.1946,-4.1947,-4.186,-4.1854,-4.1849,-4.1844,-4.1943,-4.1952,-4.196,-4.2123,0,0,-4.1988,-4.1992,0,0,0,0,0,0,0,0,-4.1692,-4.1707,-4.1822,-4.1821,-4.1819,-4.1884,-4.1891,-4.2006,-4.1861,-4.1844,-4.1848,-4.1841,-4.1931,-4.194,-4.197,-4.2127,-4.2132,-4.1989,-4.1994,-4.1998,-4.2,0,0,0,0,0,0,0,-4.1685,-4.1703,-4.1887,-4.1824,-4.1822,-4.1801,-4.181,-4.1913,-4.1916,-4.1845,-4.1838,-4.1851,-4.1929,-4.1961,-4.1972,-4.2133,-4.1988,-4.1996,-4.2002,-4.2005,-4.243,-4.2436,0,0,0,0,0,0,-4.168,-4.1697,-4.1884,-4.189,-4.1741,-4.181,-4.182,-4.1869,-4.1915,-4.1916,-4.1855,-4.1846,-4.1949,-4.1961,-4.1975,-4.217,-4.1998,-4.2006,-4.2011,-4.2425,-4.2432,-4.2438,0,0,0,0,0,0,-4.1675,-4.1698,-4.188,-4.1792,-4.1813,-4.182,-4.1875,-4.1873,-4.1906,-4.1923,-4.1923,-4.1888,-4.1945,-4.1962,-4.2087,-4.2172,-4.201,-4.2018,-4.2418,-4.2427,-4.2435,-4.256,0,0,0,0,0,0,-4.1668,-4.1697,-4.1758,-4.1794,-4.1818,-4.199,-4.188,-4.1879,-4.1921,-4.1911,-4.1953,-4.1955,-4.1942,-4.2074,-4.2096,-4.2181,-4.2025,-4.241,-4.2422,-4.2432,-4.2548,-4.2572,-4.2592,0,0,0,0,0,-4.1659,-4.1789,-4.1761,-4.1784,-4.1895,-4.1995,-4.2009,-4.1991,-4.1928,-4.1991,-4.2002,-4.1954,-4.2158,-4.2088,-4.2111,-4.2201,-4.2405,-4.2418,-4.2431,-4.2538,-4.2567,-4.2591,0,0,0,0,0,0,-4.1763,-4.1793,-4.1763,-4.1908,-4.195,-4.198,-4.2058,-4.2022,-4.2083,-4.207,-4.2045,-4.2056,-4.2188,-4.2206,-4.2127,-4.2361,-4.2272,-4.229,-4.2345,-4.2372,-4.2394,-4.2388,-4.2033,0,0,0,0,0,-4.1803,-4.1881,-4.1903,-4.2029,-4.2052,-4.2052,-4.2094,-4.2077,-4.2119,-4.2137,-4.2156,-4.22,-4.2274,-4.2324,-4.2393,-4.2549,-4.2559,-4.2623,-4.2644,-4.2662,-4.268,-4.2766,-4.2795,-4.2482,-4.2482,-4.2482,0,0,-4.1886,-4.1912,-4.1963,-4.2051,-4.2081,-4.2164,-4.2067,-4.2158,-4.222,-4.215,-4.227,-4.2286,-4.2333,-4.2476,-4.2539,-4.2495,-4.2768,-4.2679,-4.2694,-4.2701,-4.2783,-4.2812,-4.2839,-4.2491,-4.2489,-4.2488,0,0,-4.208,-4.2107,-4.2215,-4.2248,-4.2295,-4.2294,-4.232,-4.2357,-4.2365,-4.2484,-4.2434,-4.2507,-4.2635,-4.2671,-4.2706,-4.2915,-4.2875,-4.2938,-4.3054,-4.3138,-4.3163,-4.3185,-4.3261,-4.3289,-4.2955,-4.2955,-4.2955,0,-4.2177,-4.23,-4.2276,-4.2372,-4.2412,-4.2353,-4.2464,-4.2496,-4.2564,-4.2594,-4.2543,-4.2703,-4.273,-4.2881,-4.2932,-4.2962,-4.2992,-4.2934,-4.3161,-4.3183,-4.3203,-4.3276,-4.3304,-4.2963,-4.2962,-4.2961,-4.296,0,-4.2418,-4.2504,-4.2586,-4.2653,-4.2703,-4.2805,-4.2798,-4.2852,-4.2829,-4.2834,-4.2958,-4.2988,-4.3063,-4.3097,-4.3076,-4.3246,-4.3217,-4.3164,-4.3074,-4.3241,-4.3309,-4.3336,-4.2973,-4.2971,-4.2968,-4.2967,0,0,-4.2681,-4.2734,-4.2765,-4.2795,-4.2843,-4.2909,-4.3009,-4.3082,-4.313,-4.3178,-4.3263,-4.3373,-4.3324,-4.3364,-4.3347,-4.3421,-4.3587,-4.3359,-4.336,-4.3402,-4.3778,-4.382,-4.3852,-4.3559,-4.3565,-4.3569,-4.3775,0,-4.2879,-4.3053,-4.3035,-4.3201,-4.3281,-4.3226,-4.3314,-4.3353,-4.336,-4.343,-4.3437,-4.3517,-4.3445,-4.347,-4.354,-4.3552,-4.3663,-4.3536,-4.364,-4.3644,-4.3633,-4.3887,-4.3931,-4.4125,-4.3801,-4.3806,-4.3809,0,-4.3132,-4.319,-4.3365,-4.3402,-4.3435,-4.3514,-4.358,-4.3646,-4.369,-4.3691,-4.3736,-4.3706,-4.3808,-4.3715,-4.3856,-4.3771,-4.3812,-4.3825,-4.3832,-4.3842,-4.3738,-4.3908,-4.4185,-4.4216,-4.385,-4.3847,-4.3844,0,-4.331,-4.3431,-4.3552,-4.3579,-4.3625,-4.3682,-4.3704,-4.3742,-4.3788,-4.3846,-4.3875,-4.3944,-4.3983,-4.4038,-4.4028,-4.3961,-4.4174,-4.4079,-4.4178,-4.4179,-4.4227,-4.4225,-4.4518,-4.425,-4.425,-4.4249,-4.4249,0,-4.3534,-4.3643,-4.3632,-4.3707,-4.3828,-4.3806,-4.3928,-4.3942,-4.3977,-4.4054,-4.401,-4.4084,-4.4065,-4.4139,-4.4131,-4.4251,-4.4268,-4.4273,-4.427,-4.4278,-4.4278,-4.4306,-4.4294,-4.4257,-4.4255,-4.4254,-4.4253,0,-4.3753,-4.375,-4.3878,-4.3911,-4.3922,-4.401,-4.4038,-4.4109,-4.4112,-4.4211,-4.4233,-4.4239,-4.4323,-4.4318,-4.4413,-4.4408,-4.4556,-4.4537,-4.4542,-4.4539,-4.464,-4.4631,-4.4963,-4.5007,-4.4709,-4.4711,-4.4714,0,-4.3897,-4.398,-4.4022,-4.407,-4.4096,-4.4174,-4.4221,-4.4203,-4.4253,-4.431,-4.4375,-4.4454,-4.4517,-4.4655,-4.4668,-4.4741,-4.4724,-4.4836,-4.4735,-4.4741,-4.4729,-4.4725,-4.4734,-4.4856,-4.486,-4.4862,-4.4864,0,-4.4154,-4.4149,-4.4217,-4.4286,-4.4342,-4.4396,-4.4444,-4.4486,-4.4473,-4.4532,-4.4618,-4.4667,-4.4764,-4.4845,-4.4914,-4.4937,-4.4901,-4.4896,-4.4923,-4.4934,-4.4934,-4.4938,-4.4598,-4.4889,-4.4886,-4.4884,-4.4883,-4.4882,-4.4342,-4.4414,-4.4455,-4.4533,-4.4568,-4.4614,-4.4683,-4.4695,-4.4766,-4.4843,-4.4828,-4.4925,-4.4968,-4.5057,-4.5087,-4.5163,-4.5124,-4.5163,-4.5173,-4.5184,-4.5196,-4.492,-4.5175,-4.5175,-4.5174,-4.5173,-4.5173,0,-4.4599,-4.4622,-4.4694,-4.4764,-4.4826,-4.4784,-4.4835,-4.4891,-4.4976,-4.5019,-4.5082,-4.5181,-4.5259,-4.5279,-4.5354,-4.5412,-4.5397,-4.5432,-4.5429,-4.5436,-4.5226,-4.5196,-4.5443,-4.5443,-4.5443,-4.5443,-4.5443,-4.5443,-4.474,-4.486,-4.486,-4.4997,-4.502,-4.5114,-4.5147,-4.5191,-4.5225,-4.5338,-4.5402,-4.5414,-4.5449,-4.5526,-4.5597,-4.56,-4.5631,-4.5675,-4.5672,-4.5477,-4.545,-4.5424,-4.5396,-4.5681,-4.5681,-4.5875,-4.5877,-4.5879]},{"header":{"parameterUnit":"m.s-1","parameterCategory":1,"la1":30.2991,"la2":30.254,"lo1":-89.0895,"lo2":-89.0444,"dy":0.0017,"dx":0.0017,"nx":28,"ny":28,"refTime":"2023-11-14T03:00:00:Z","depth":0,"parameterNumber":3,"parameterNumberName":"V-component_of_WINDS"},"data":[0,0,0,0,0,0,0,0,0,0,0,0,0,0,0,0,0,0,0,0,0,0,0,0,0,0,0,0,0,0,0,0,0,0,0,0,0,0,0,0,0,0,0,0,0,0,0,0,0,0,0,0,0,0,0,0,0,0,-6.2372,-6.2371,0,-6.2313,-6.2312,-6.2312,-6.2182,-6.2179,-6.2177,-6.2174,-6.2115,-6.2116,-6.2117,0,0,0,0,0,0,0,0,0,0,0,0,0,-6.2371,-6.2371,-6.2372,-6.2371,-6.237,-6.2313,-6.2312,-6.2312,-6.2183,-6.2179,-6.2176,-6.2173,-6.2115,-6.2116,-6.2117,0,0,0,0,0,0,0,0,0,0,0,0,0,-6.2348,-6.2372,-6.2372,-6.2299,-6.2292,-6.2313,-6.2312,-6.2311,-6.2183,-6.2179,-6.2175,-6.2172,-6.2114,-6.2116,-6.2117,-6.2205,0,0,-6.2121,-6.2122,0,0,0,0,0,0,0,0,-6.2349,-6.2348,-6.231,-6.2304,-6.2296,-6.2251,-6.229,-6.2276,-6.2184,-6.2225,-6.2174,-6.217,-6.2164,-6.2161,-6.2158,-6.2202,-6.22,-6.2121,-6.2122,-6.2123,-6.2123,0,0,0,0,0,0,0,-6.2351,-6.235,-6.2348,-6.231,-6.2301,-6.2269,-6.2261,-6.2287,-6.2217,-6.2221,-6.2211,-6.2206,-6.2159,-6.2157,-6.2156,-6.2199,-6.2121,-6.2122,-6.2123,-6.2124,-6.2308,-6.2312,0,0,0,0,0,0,-6.2363,-6.2352,-6.235,-6.2347,-6.2313,-6.2272,-6.2263,-6.2269,-6.2216,-6.2205,-6.2209,-6.22,-6.2157,-6.2155,-6.2153,-6.225,-6.2123,-6.2124,-6.2125,-6.2304,-6.2309,-6.2314,0,0,0,0,0,0,-6.2364,-6.2364,-6.2353,-6.2347,-6.2343,-6.2276,-6.2284,-6.227,-6.2269,-6.2208,-6.2195,-6.2221,-6.2154,-6.2152,-6.2192,-6.2247,-6.2125,-6.2126,-6.23,-6.2306,-6.2312,-6.2447,0,0,0,0,0,0,-6.2364,-6.2365,-6.2398,-6.2348,-6.2344,-6.2394,-6.2287,-6.2272,-6.2271,-6.2259,-6.2215,-6.2204,-6.215,-6.2191,-6.2194,-6.2246,-6.2127,-6.2294,-6.2302,-6.231,-6.2438,-6.2457,-6.2474,0,0,0,0,0,-6.2364,-6.244,-6.2401,-6.2401,-6.2384,-6.2397,-6.2394,-6.2331,-6.2276,-6.2308,-6.2269,-6.2205,-6.2241,-6.2196,-6.2198,-6.2252,-6.2291,-6.23,-6.2309,-6.2429,-6.2454,-6.2474,0,0,0,0,0,0,-6.2499,-6.2432,-6.2388,-6.2449,-6.243,-6.2375,-6.2414,-6.2359,-6.2354,-6.2343,-6.2264,-6.2256,-6.2307,-6.2283,-6.2235,-6.2333,-6.2255,-6.2265,-6.2346,-6.2368,-6.2386,-6.239,-6.2128,0,0,0,0,0,-6.2535,-6.2552,-6.2492,-6.2552,-6.2545,-6.2482,-6.2485,-6.2438,-6.2414,-6.2405,-6.2369,-6.2349,-6.2354,-6.236,-6.2363,-6.2434,-6.2421,-6.2472,-6.249,-6.2505,-6.2515,-6.2547,-6.2568,-6.2344,-6.2344,-6.2344,0,0,-6.2611,-6.2577,-6.2592,-6.2578,-6.2558,-6.2576,-6.2475,-6.25,-6.2512,-6.2409,-6.2444,-6.2417,-6.2389,-6.2445,-6.2468,-6.2427,-6.2574,-6.2517,-6.253,-6.253,-6.2559,-6.258,-6.2599,-6.235,-6.2349,-6.2348,0,0,-6.2759,-6.2735,-6.2781,-6.2762,-6.2731,-6.2688,-6.27,-6.2653,-6.263,-6.2665,-6.2587,-6.2601,-6.2614,-6.2596,-6.2589,-6.2727,-6.2668,-6.273,-6.2825,-6.2858,-6.2876,-6.2891,-6.2938,-6.2957,-6.274,-6.274,-6.274,0,-6.2857,-6.2881,-6.2812,-6.284,-6.2835,-6.2742,-6.2787,-6.2772,-6.2745,-6.2743,-6.2698,-6.271,-6.2685,-6.2734,-6.2768,-6.2766,-6.2775,-6.2734,-6.2879,-6.2894,-6.2907,-6.2951,-6.2969,-6.2748,-6.2747,-6.2746,-6.2745,0,-6.3003,-6.3021,-6.3062,-6.3036,-6.3036,-6.3073,-6.3008,-6.3016,-6.2968,-6.293,-6.2965,-6.2931,-6.2924,-6.2932,-6.2887,-6.2974,-6.2949,-6.2893,-6.2813,-6.2937,-6.2977,-6.2994,-6.2759,-6.2756,-6.2754,-6.2752,0,0,-6.3234,-6.3168,-6.3184,-6.3169,-6.3128,-6.314,-6.3172,-6.3164,-6.3172,-6.3156,-6.3179,-6.3191,-6.3137,-6.313,-6.3081,-6.311,-6.3219,-6.3049,-6.3047,-6.308,-6.331,-6.3352,-6.3373,-6.3179,-6.3182,-6.3185,-6.3312,0,-6.337,-6.3421,-6.3358,-6.3422,-6.3436,-6.3347,-6.3374,-6.3351,-6.3316,-6.3322,-6.3283,-6.3292,-6.3222,-6.3216,-6.3241,-6.3201,-6.3264,-6.3191,-6.3199,-6.32,-6.3207,-6.3394,-6.3438,-6.356,-6.3327,-6.333,-6.3332,0,-6.3536,-6.3526,-6.3592,-6.3543,-6.3547,-6.3573,-6.3559,-6.3567,-6.3538,-6.351,-6.35,-6.3441,-6.3468,-6.3391,-6.3425,-6.3377,-6.3376,-6.3357,-6.336,-6.3357,-6.3273,-6.3394,-6.3597,-6.3615,-6.3356,-6.3354,-6.3352,0,-6.3696,-6.3699,-6.3737,-6.3728,-6.3674,-6.3694,-6.3672,-6.3639,-6.3638,-6.3626,-6.3624,-6.3616,-6.3611,-6.3605,-6.3545,-6.3495,-6.3586,-6.3505,-6.3562,-6.3563,-6.3584,-6.3583,-6.3788,-6.3587,-6.3587,-6.3587,-6.3586,0,-6.3854,-6.3897,-6.3808,-6.3832,-6.3876,-6.3803,-6.3849,-6.3818,-6.3789,-6.3804,-6.3728,-6.3743,-6.3663,-6.367,-6.3623,-6.3657,-6.3656,-6.3633,-6.362,-6.3639,-6.3642,-6.3637,-6.3626,-6.3591,-6.359,-6.3589,-6.3588,0,-6.404,-6.3982,-6.4018,-6.3963,-6.395,-6.3985,-6.3937,-6.3956,-6.3915,-6.3935,-6.3935,-6.3871,-6.3874,-6.3813,-6.3806,-6.3774,-6.3828,-6.3801,-6.3838,-6.3828,-6.3888,-6.3883,-6.4096,-6.4119,-6.3905,-6.3907,-6.3909,0,-6.4144,-6.4174,-6.4122,-6.4126,-6.4108,-6.4116,-6.4114,-6.4043,-6.4043,-6.4011,-6.4034,-6.4031,-6.4025,-6.4034,-6.3986,-6.3979,-6.395,-6.4025,-6.3948,-6.3966,-6.3948,-6.3946,-6.3948,-6.4041,-6.4043,-6.4046,-6.4047,0,-6.4334,-6.4303,-6.4303,-6.4292,-6.4291,-6.4279,-6.4262,-6.4269,-6.4192,-6.4196,-6.4198,-6.4193,-6.4184,-6.4181,-6.4164,-6.4141,-6.4081,-6.4072,-6.4084,-6.4104,-6.4123,-6.4111,-6.388,-6.4067,-6.4065,-6.4064,-6.4063,-6.4062,-6.4481,-6.4503,-6.4468,-6.4469,-6.4449,-6.4434,-6.4448,-6.4408,-6.4409,-6.4395,-6.4353,-6.4362,-6.433,-6.4301,-6.4283,-6.4288,-6.425,-6.4269,-6.4274,-6.4279,-6.4289,-6.4123,-6.4285,-6.4284,-6.4283,-6.4283,-6.4282,0,-6.4665,-6.4638,-6.464,-6.4618,-6.4618,-6.4561,-6.4539,-6.4543,-6.4551,-6.4526,-6.4521,-6.4523,-6.4519,-6.447,-6.446,-6.4474,-6.4446,-6.4473,-6.4471,-6.4466,-6.4324,-6.4313,-6.4496,-6.4496,-6.4496,-6.4496,-6.4496,-6.4496,-6.4761,-6.4794,-6.4759,-6.4781,-6.4753,-6.4761,-6.4753,-6.4738,-6.4717,-6.4722,-6.4718,-6.4686,-6.4651,-6.4637,-6.4631,-6.4616,-6.4615,-6.4652,-6.4628,-6.4497,-6.4476,-6.4456,-6.4446,-6.4653,-6.4653,-6.4769,-6.477,-6.4771]}]]